Location: ??????
(55.7522°N, 37.6156°E)
Time: 18:13:37
(UTC+00:00)

Cosmos 1271 Rocket - Pass Details

Date: 14 June 2025
Orbit: 443 x 475 km, 81.2° (Epoch: 12 July)

Event Time Altitude Azimuth Distance (km) Brightness Sun altitude
Exits shadow 20:42:05 15° 155° (SSE) 1,390 4.3 -10.3°
Maximum altitude 20:44:40 34° 95° (E) 817 3.6 -10.4°
Drops below altitude 10° 20:47:59 10° 30° (NNE) 1,661 6.1 -10.4°
Sets 20:50:12 0° 21° (NNE) 2,543 7.4 -10.5°
